Tacoma, WA

9:48 PM PDT on April 30, 2017 (GMT -0700)
McChord Air Force Base

Weather History for KTCM - March, 2015

Change the Weather History Date:

Saturday, March 28, 2015

  Actual Average Record
Temperature  
Mean Temperature 53 °F -  
Max Temperature 59 °F 52 °F 72 °F (1994)
Min Temperature 47 °F 33 °F 27 °F (1962)
Degree Days  
Heating Degree Days 12    
Growing Degree Days 3 (Base 50)    
Moisture  
Dew Point 48 °F    
Average Humidity 90    
Maximum Humidity 100    
Minimum Humidity 65    
Precipitation  
Precipitation 0.01 in - - ()
Sea Level Pressure  
Sea Level Pressure 30.22 in    
Wind  
Wind Speed 12 mph (SSW)    
Max Wind Speed 18 mph    
Max Gust Speed 22 mph    
Visibility 10 miles    
Events Rain    
Averages and records for this station are not official NWS values.
T = Trace of Precipitation, MM = Missing Value Source: NWS Daily Summary

Daily Weather History Graph

Daily Weather History Graph

Search for Another Location

Airport or City:

Trip Planner

Search our weather history database for the weather conditions in past years. The results will help you decide how hot, cold, wet, or windy it might be!

Date:

Astronomy

Mar. 28, 2015 Rise Set
Actual Time 6:57 AM PDT 7:33 PM PDT
Civil Twilight 6:26 AM PDT 8:04 PM PDT
Nautical Twilight 5:50 AM PDT 8:40 PM PDT
Astronomical Twilight 5:12 AM PDT 9:19 PM PDT
Moon 1:19 PM PDT (3/28) 3:26 AM PDT (3/28)
Length of Visible Light 13h 37m
Length of Day
12h 36m
Waxing Gibbous, 64% of the Moon is Illuminated
Mar 28
Waxing Gibbous
Apr 4
Full
Apr 11
Last Quarter
Apr 18
New
Apr 25
First Quarter

Hourly Weather History & Observations

Time (PDT) Temp. Dew Point Humidity Pressure Visibility Wind Dir Wind Speed Gust Speed Precip Events Conditions
12:12 AM 50.0 °F 50.0 °F 100% 30.08 in 8.0 mi South 10.4 mph - N/A Rain Light Rain
12:13 AM 50.0 °F 50.0 °F 100% 30.08 in 8.0 mi South 13.8 mph 17.3 mph N/A   Overcast
12:18 AM 50.0 °F 50.0 °F 100% 30.08 in 8.0 mi SSW 15.0 mph 17.3 mph N/A Rain Light Rain
12:23 AM 50.0 °F 50.0 °F 100% 30.08 in 10.0 mi South 13.8 mph 17.3 mph N/A Rain Light Rain
12:38 AM 50.0 °F 50.0 °F 100% 30.09 in 10.0 mi SSW 16.1 mph 21.9 mph N/A Rain Light Rain
12:42 AM 50.0 °F 50.0 °F 100% 30.09 in 10.0 mi SSW 13.8 mph - N/A   Mostly Cloudy
12:47 AM 50.0 °F 50.0 °F 100% 30.09 in 10.0 mi SSW 13.8 mph - N/A   Mostly Cloudy
12:52 AM 50.0 °F 50.0 °F 100% 30.10 in 10.0 mi SSW 10.4 mph - N/A   Mostly Cloudy
12:58 AM 49.8 °F 49.6 °F 99% 30.11 in 10.0 mi SSW 10.4 mph - 0.00 in   Mostly Cloudy
1:02 AM 50.0 °F 50.0 °F 100% 30.10 in 10.0 mi SW 15.0 mph - N/A Rain Light Rain
1:17 AM 50.0 °F 50.0 °F 100% 30.10 in 10.0 mi SSW 12.7 mph - N/A Rain Light Rain
1:18 AM 50.0 °F 50.0 °F 100% 30.10 in 10.0 mi SSW 15.0 mph - N/A   Mostly Cloudy
1:33 AM 50.0 °F 48.2 °F 94% 30.11 in 10.0 mi SSW 8.1 mph - N/A   Overcast
1:43 AM 50.0 °F 50.0 °F 100% 30.11 in 10.0 mi SSW 11.5 mph - N/A   Overcast
1:48 AM 50.0 °F 48.2 °F 94% 30.11 in 10.0 mi SSW 9.2 mph - N/A   Overcast
1:53 AM 50.0 °F 48.2 °F 94% 30.11 in 10.0 mi SSW 9.2 mph - N/A   Overcast
1:58 AM 49.3 °F 49.1 °F 99% 30.13 in 10.0 mi SSW 6.9 mph - 0.00 in   Overcast
2:08 AM 50.0 °F 48.2 °F 94% 30.12 in 10.0 mi South 8.1 mph - N/A   Overcast
2:13 AM 50.0 °F 48.2 °F 94% 30.12 in 10.0 mi SSW 6.9 mph - N/A   Mostly Cloudy
2:58 AM 48.7 °F 48.6 °F 99% 30.12 in 10.0 mi SSW 13.8 mph - N/A   Overcast
3:58 AM 48.7 °F 48.6 °F 99% 30.12 in 10.0 mi SSW 13.8 mph 18.4 mph N/A   Overcast
4:13 AM 48.2 °F 48.2 °F 100% 30.13 in 10.0 mi SW 12.7 mph - N/A Rain Light Rain
4:18 AM 48.2 °F 48.2 °F 100% 30.13 in 8.0 mi SW 16.1 mph 20.7 mph N/A Rain Light Rain
4:19 AM 48.2 °F 48.2 °F 100% 30.13 in 7.0 mi SW 15.0 mph 20.7 mph N/A Rain Light Rain
4:24 AM 48.2 °F 48.2 °F 100% 30.13 in 6.0 mi SSW 12.7 mph 20.7 mph N/A Rain Light Rain
4:29 AM 48.2 °F 48.2 °F 100% 30.13 in 8.0 mi SSW 12.7 mph 17.3 mph N/A Rain Light Rain
4:34 AM 48.2 °F 48.2 °F 100% 30.14 in 10.0 mi SSW 12.7 mph 17.3 mph N/A   Overcast
4:58 AM 48.7 °F 48.6 °F 99% 30.17 in 10.0 mi South 12.7 mph - 0.01 in   Overcast
5:08 AM 48.2 °F 48.2 °F 100% 30.16 in 10.0 mi SSW 10.4 mph - N/A   Overcast
5:13 AM 48.2 °F 48.2 °F 100% 30.16 in 10.0 mi SSW 10.4 mph - N/A   Overcast
5:18 AM 48.2 °F 48.2 °F 100% 30.16 in 10.0 mi South 10.4 mph - N/A   Overcast
5:28 AM 48.2 °F 48.2 °F 100% 30.16 in 10.0 mi SSW 11.5 mph - N/A   Overcast
5:33 AM 48.2 °F 48.2 °F 100% 30.17 in 10.0 mi SSW 11.5 mph - N/A   Overcast
5:38 AM 48.2 °F 48.2 °F 100% 30.17 in 10.0 mi SSW 11.5 mph - N/A   Overcast
5:58 AM 48.9 °F 48.4 °F 98% 30.19 in 10.0 mi SSW 10.4 mph - N/A   Overcast
6:18 AM 48.2 °F 48.2 °F 100% 30.20 in 10.0 mi SSW 10.4 mph - N/A   Overcast
6:28 AM 48.2 °F 48.2 °F 100% 30.21 in 10.0 mi South 10.4 mph - N/A   Overcast
6:58 AM 48.4 °F 47.8 °F 98% 30.25 in 10.0 mi South 12.7 mph - N/A   Overcast
7:03 AM 48.2 °F 48.2 °F 100% 30.23 in 10.0 mi South 13.8 mph - N/A   Overcast
7:33 AM 48.2 °F 46.4 °F 93% 30.25 in 10.0 mi South 13.8 mph - N/A   Scattered Clouds
7:58 AM 48.7 °F 47.7 °F 96% 30.29 in 10.0 mi SSW 15.0 mph - N/A   Mostly Cloudy
8:58 AM 50.7 °F 47.8 °F 90% 30.32 in 10.0 mi South 13.8 mph - N/A   Clear
10:23 AM 53.6 °F 46.4 °F 77% 30.32 in 10.0 mi SW 12.7 mph 20.7 mph N/A   Mostly Cloudy
10:33 AM 55.4 °F 46.4 °F 72% 30.32 in 10.0 mi SW 16.1 mph 20.7 mph N/A   Scattered Clouds
10:58 AM 55.0 °F 46.2 °F 72% 30.35 in 10.0 mi SSW 12.7 mph - N/A   Scattered Clouds
11:08 AM 55.4 °F 46.4 °F 72% 30.33 in 10.0 mi SSW 18.4 mph - N/A   Mostly Cloudy
11:43 AM 55.4 °F 46.4 °F 72% 30.34 in 10.0 mi SW 15.0 mph - N/A   Mostly Cloudy
11:58 AM 55.0 °F 46.6 °F 73% 30.36 in 10.0 mi SW 16.1 mph 21.9 mph N/A   Scattered Clouds
12:58 PM 58.3 °F 46.4 °F 65% 30.32 in 10.0 mi SSW 15.0 mph - N/A   Scattered Clouds
1:58 PM 56.8 °F 46.6 °F 69% 30.37 in 10.0 mi SSW 10.4 mph - N/A   Overcast
2:00 PM 55.4 °F 46.4 °F 72% 30.35 in 10.0 mi SSW 10.4 mph - N/A Rain Light Rain
2:10 PM 55.4 °F 48.2 °F 77% 30.35 in 8.0 mi South 9.2 mph - N/A Rain Light Rain
2:12 PM 55.4 °F 50.0 °F 82% 30.35 in 8.0 mi South 9.2 mph - N/A Rain Light Rain
2:22 PM 55.4 °F 50.0 °F 82% 30.34 in 10.0 mi South 3.5 mph - N/A Rain Light Rain
2:23 PM 55.4 °F 50.0 °F 82% 30.34 in 10.0 mi South 5.8 mph - N/A   Overcast
2:38 PM 57.2 °F 48.2 °F 72% 30.34 in 10.0 mi SSW 6.9 mph - N/A   Overcast
2:58 PM 57.2 °F 47.3 °F 69% 30.35 in 10.0 mi SSW 11.5 mph - 0.00 in   Overcast
3:58 PM 58.3 °F 46.8 °F 66% 30.35 in 10.0 mi WSW 12.7 mph - N/A   Mostly Cloudy
4:58 PM 57.9 °F 46.0 °F 65% 30.35 in 10.0 mi SW 12.7 mph - N/A   Overcast
5:58 PM 56.8 °F 47.3 °F 70% 30.35 in 10.0 mi WSW 3.5 mph - N/A   Overcast
6:58 PM 55.8 °F 44.6 °F 66% 30.35 in 10.0 mi SW 10.4 mph - N/A   Overcast
7:58 PM 54.5 °F 44.2 °F 68% 30.35 in 10.0 mi SSW 4.6 mph - N/A   Overcast
8:58 PM 51.6 °F 45.3 °F 79% 30.35 in 10.0 mi Calm Calm - N/A   Overcast
9:58 PM 51.6 °F 45.1 °F 79% 30.36 in 10.0 mi Calm Calm - N/A   Overcast
10:58 PM 51.1 °F 44.6 °F 78% 30.36 in 10.0 mi Calm Calm - N/A   Overcast
11:58 PM 47.3 °F 47.1 °F 99% 30.37 in 10.0 mi Calm Calm - N/A   Overcast